Lapse_Rate
5.4 5.4 5.1 4.8 4.8 4.9 5.3 5.4 5.3 5.5 6.3 6.3 6.0 5.9 5.8 5.6 5.5 5.6 5.6 5.8 5.9 6.1 6.2 6.1 6.0 5.8 5.7 5.5 5.4 5.7 6.0 6.0 6.1 6.1 6.1 6.2 6.2 6.4
5.4 5.4 5.2 5.0 4.9 4.8 4.8 4.8 5.1 5.2 5.8 6.1 5.9 5.7 5.7 5.6 5.3 5.5 5.6 5.7 5.9 6.0 6.1 6.2 6.1 6.0 5.8 5.7 5.4 5.3 5.5 5.8 5.9 5.9 6.0 6.1 6.1 6.1
4.9 5.0 5.1 4.9 4.9 4.6 4.6 4.8 4.7 4.7 4.7 5.9 5.8 5.4 5.4 5.5 5.6 5.4 5.6 5.8 6.0 6.0 5.8 6.1 6.3 6.1 6.1 5.9 5.6 5.4 5.3 5.3 5.6 5.9 5.8 5.9 5.9 5.9
4.9 4.8 4.5 4.3 4.8 4.7 4.5 4.9 4.8 4.7 4.6 5.6 6.0 5.7 5.4 5.5 5.6 6.1 6.1 6.0 6.0 6.2 6.2 6.0 6.1 6.4 6.2 6.2 5.8 5.6 5.4 5.2 5.2 5.5 5.7 5.7 5.7 5.7
5.0 4.5 4.8 4.6 5.1 5.1 5.3 5.5 5.1 4.8 4.7 5.0 5.3 5.9 5.6 5.7 6.0 6.4 6.5 6.6 6.5 6.4 6.4 6.3 6.2 6.2 6.3 6.2 6.3 5.7 5.4 5.2 5.1 5.2 5.4 5.6 5.7 5.6
5.0 5.0 5.1 5.0 5.3 5.5 5.5 5.8 5.4 5.2 5.0 5.0 5.1 5.7 5.8 6.0 5.9 6.1 6.6 6.6 6.3 6.3 6.4 6.3 5.9 6.0 6.2 6.4 6.2 6.1 5.5 5.4 5.2 5.4 5.2 5.4 5.6 5.6
4.6 4.8 5.0 5.1 5.1 5.2 5.4 5.5 5.5 5.4 5.1 5.2 5.5 6.1 6.4 5.9 5.9 5.9 6.0 5.9 6.0 6.0 5.9 6.1 5.8 5.7 5.9 6.2 6.3 6.0 5.6 5.3 5.3 5.2 5.0 5.1 5.3 5.4
4.9 5.0 5.4 5.1 5.0 5.1 5.1 5.1 5.4 5.4 5.3 5.4 5.9 6.2 6.2 6.0 5.9 6.1 5.8 5.6 5.8 5.4 5.3 6.1 5.7 5.6 5.8 5.8 6.1 6.0 5.8 5.3 5.2 5.0 5.0 5.2 5.3 5.3
5.0 5.4 5.5 5.6 5.1 5.1 5.3 5.0 5.2 5.1 5.3 5.8 6.1 6.4 5.8 6.1 5.8 5.6 4.9 4.9 4.8 4.3 3.9 5.8 5.1 5.2 5.4 5.7 5.8 5.8 5.8 5.5 5.1 4.9 5.0 5.2 5.1 5.1
5.2 5.7 5.5 5.4 5.1 5.1 5.3 5.2 5.2 5.4 5.7 5.9 6.0 5.8 5.8 6.1 5.8 4.9 4.4 4.3 4.4 4.4 4.7 5.4 5.1 4.9 5.1 5.4 5.7 5.7 5.5 5.5 5.2 5.1 4.9 5.1 5.2 5.1
5.6 5.7 5.3 5.2 5.1 5.1 5.5 5.4 5.5 5.9 6.0 6.0 6.0 5.7 5.6 5.8 5.5 5.4 5.3 4.2 4.2 4.6 5.4 4.0 4.4 4.5 5.1 5.8 6.2 5.7 5.6 5.4 5.3 5.1 5.3 5.3 5.1 5.2
5.8 5.7 5.3 5.2 5.2 5.2 5.4 5.4 5.7 6.2 6.2 6.2 6.0 6.0 6.0 5.9 5.7 5.4 5.2 4.0 4.0 5.0 5.3 3.6 4.1 4.4 5.1 6.1 6.6 6.0 5.7 5.4 5.2 5.3 5.2 5.3 5.2 5.0
5.7 5.6 5.4 5.4 5.5 5.4 5.2 5.1 5.4 5.9 6.1 6.0 6.1 6.1 6.1 6.1 5.9 5.6 5.8 4.4 4.3 5.0 5.5 4.6 4.8 5.1 4.9 5.6 5.9 5.8 5.5 5.5 5.5 5.5 5.6 5.6 5.1 5.1
5.6 5.6 5.6 5.4 5.6 5.5 4.9 5.2 5.6 5.9 6.2 6.1 6.1 6.1 6.1 6.0 5.8 6.1 5.3 5.0 4.5 4.4 5.2 5.8 5.3 5.0 5.2 5.5 6.0 5.8 5.6 5.5 5.6 5.5 5.2 5.7 5.3 5.2
5.7 5.8 5.8 5.8 5.6 5.1 5.0 5.5 5.9 6.1 6.2 6.2 6.3 6.1 5.9 5.7 5.5 5.7 5.4 4.9 4.7 5.1 5.6 5.8 5.5 5.6 5.6 5.4 5.8 5.7 5.6 5.5 5.5 5.4 5.4 5.3 5.5 5.6
5.9 6.2 6.2 6.0 5.7 5.2 5.6 5.9 6.1 6.4 6.5 6.4 6.3 6.0 5.8 5.5 5.2 5.6 5.5 5.1 4.6 5.6 5.8 5.8 5.4 6.2 6.0 5.7 6.1 6.0 5.7 5.7 5.6 5.4 5.3 5.3 5.5 5.6
6.2 6.5 6.3 6.2 5.6 5.7 6.0 6.3 6.3 6.4 6.3 6.1 6.1 6.0 5.7 5.5 5.5 5.6 5.3 5.5 4.7 5.2 6.0 6.0 6.0 5.8 6.0 6.1 6.3 6.1 5.6 5.5 5.5 5.3 5.2 5.2 5.5 5.4
6.2 6.3 6.4 5.4 5.9 6.1 6.2 6.2 6.5 6.4 6.1 6.0 6.0 5.8 5.7 5.6 5.7 5.6 5.5 5.3 5.0 5.0 5.6 6.1 6.0 6.0 6.1 6.2 6.1 5.9 5.3 5.1 5.1 5.3 5.3 5.4 5.5 5.7
6.2 6.4 6.2 6.0 6.0 6.2 6.5 6.7 6.6 6.3 6.0 6.0 6.1 5.9 5.8 5.6 5.6 5.7 5.8 5.2 5.1 4.9 4.8 5.7 6.0 5.9 6.1 6.0 5.8 5.5 5.2 5.0 4.9 5.0 5.1 5.2 5.4 5.6
6.3 6.3 6.2 6.1 6.1 6.3 6.6 6.8 6.7 6.3 6.0 5.9 5.9 6.0 5.9 5.8 5.7 5.5 5.5 5.5 5.2 4.8 4.8 4.8 5.2 5.6 5.9 6.0 5.6 5.6 5.2 4.9 5.0 5.2 5.1 5.1 5.1 5.2
6.4 6.4 6.3 6.4 6.3 6.5 6.7 6.7 6.7 6.4 6.2 6.0 6.0 6.1 6.0 5.9 5.6 5.5 5.4 5.2 5.7 5.0 4.9 4.7 4.3 4.3 4.4 5.0 5.5 5.4 5.1 5.0 4.7 5.0 4.9 4.8 4.9 4.9
6.4 6.5 6.5 6.4 6.4 6.7 6.7 6.7 6.5 6.4 6.3 6.2 6.2 6.2 6.1 6.0 5.8 5.6 5.3 5.0 5.0 5.4 5.0 4.8 4.2 4.5 4.1 4.3 4.0 4.7 5.2 5.3 4.9 5.0 5.0 4.9 5.0 5.0
6.4 6.5 6.5 6.5 6.6 6.6 6.7 6.6 6.5 6.4 6.1 6.1 6.1 6.1 6.0 5.9 5.8 5.8 5.6 5.3 5.1 5.1 5.5 4.9 4.8 4.3 4.3 4.4 4.1 4.0 4.4 4.8 5.0 4.6 4.8 5.0 5.2 5.3
Wind_Speed
5 5 5 4 5 5 4 3 3 2 3 2 3 4 7 10 12 16 16 19 23 23 24 24 24 24 25 25 26 27 28 30 31 31 30 29 29 28
3 4 5 4 5 5 5 4 4 4 4 4 4 5 9 11 14 15 17 20 22 23 23 23 24 26 26 27 27 28 28 30 31 30 32 31 31 30
4 5 7 5 5 5 5 4 5 4 6 6 5 5 6 9 10 14 16 16 18 21 24 26 26 26 27 27 28 27 28 29 29 30 32 32 31 30
6 5 7 3 6 6 5 8 7 6 5 11 8 7 7 10 11 11 10 17 18 22 27 27 29 29 29 26 28 28 28 28 28 29 30 32 31 30
6 6 7 5 6 5 6 6 7 6 6 6 10 7 7 8 9 9 10 11 17 22 24 26 27 27 28 27 27 29 28 29 29 29 29 28 28 31
7 6 6 6 6 6 5 8 7 7 7 7 8 9 9 9 7 10 10 9 10 15 21 23 28 29 33 32 29 29 29 28 30 30 29 29 29 29
6 6 5 7 11 9 4 6 7 7 6 7 9 9 9 9 10 9 10 11 11 11 12 12 12 11 14 23 26 29 30 27 27 28 27 28 28 29
6 4 4 7 7 10 10 13 12 8 9 6 8 9 13 10 9 9 10 12 14 9 12 15 12 14 13 13 22 24 25 27 26 26 27 28 28 27
5 4 5 4 6 6 8 9 10 12 12 9 10 11 11 12 11 12 12 12 15 15 15 19 14 16 13 14 24 24 26 26 28 28 28 28 28 28
5 5 5 7 7 6 7 7 6 6 7 5 7 11 12 13 12 12 13 14 15 14 15 17 14 16 14 13 22 23 23 24 25 27 26 26 27 27
4 4 4 7 7 5 4 6 7 7 7 10 12 16 20 22 19 10 10 11 15 16 14 13 14 15 13 13 13 20 19 21 23 24 25 24 24 25
3 4 5 5 5 1 2 3 5 6 9 12 11 12 12 13 18 11 10 12 15 19 14 12 13 11 7 10 14 12 11 18 21 20 22 22 18 10
3 3 2 4 3 2 3 1 3 6 11 8 9 9 10 10 10 10 12 12 15 17 19 13 11 9 8 7 7 11 11 7 9 9 14 15 20 16
3 1 2 4 4 2 2 4 6 7 5 6 7 8 7 8 10 11 15 16 15 19 23 14 5 9 8 9 6 1 3 5 6 6 7 9 16 15
1 2 7 7 4 1 3 5 6 4 4 6 7 7 7 9 12 12 15 17 18 18 12 12 5 3 4 6 5 3 4 4 5 7 6 9 8 9
1 3 3 3 5 3 2 4 3 3 4 5 6 7 7 7 9 9 11 12 13 13 15 14 6 5 5 5 6 3 3 3 5 5 6 5 6 6
1 1 2 2 1 2 3 3 3 4 5 5 6 7 7 8 8 9 9 11 11 13 12 11 9 2 2 2 5 3 3 2 4 5 5 6 6 8
1 2 2 1 1 2 3 3 3 6 6 6 6 6 7 8 9 9 8 9 11 12 11 10 9 3 1 3 11 4 2 3 4 6 4 5 6 7
2 2 1 1 1 1 2 2 3 5 6 5 6 7 7 7 9 8 9 8 10 9 11 12 11 8 5 4 4 13 2 1 6 6 5 3 6 8
2 1 1 2 2 1 2 3 4 4 5 6 6 7 7 7 9 8 8 8 10 8 9 10 12 11 10 6 2 4 11 4 1 6 4 2 3 6
2 2 2 2 1 2 2 3 3 4 4 5 6 6 7 7 8 8 7 11 10 7 8 9 10 17 8 3 8 7 6 15 4 0 2 3 2 3
3 3 2 2 2 2 2 3 2 3 4 5 6 6 7 6 8 9 8 7 7 6 6 6 9 8 8 9 10 12 9 8 9 21 21 11 1 4
3 2 3 3 1 1 2 1 1 2 3 4 5 6 6 7 8 7 8 7 8 6 6 6 7 6 8 8 8 9 16 12 7 9 11 19 19 17
Wind_Direction
235 230 228 232 226 214 207 183 173 263 277 261 268 242 271 303 302 309 304 306 308 305 304 300 299 295 279 268 263 260 249 240 232 229 228 229 230 230
260 249 239 233 234 225 219 211 204 202 273 214 248 262 279 291 297 299 299 301 302 298 293 290 292 294 286 271 260 253 249 244 238 230 226 224 225 226
266 253 257 231 239 234 225 225 223 196 252 285 247 276 287 289 294 295 295 293 294 290 287 286 286 285 283 276 261 248 244 242 240 237 230 225 221 222
256 254 261 272 247 244 227 235 236 219 222 270 286 279 276 286 290 289 287 292 288 291 287 284 283 279 275 271 258 248 240 238 237 236 230 225 219 219
244 236 247 244 254 242 230 238 242 248 231 248 278 278 282 287 287 283 282 284 283 291 285 285 284 274 270 268 258 246 233 230 230 227 222 221 217 217
249 246 244 237 247 253 247 244 251 253 250 252 269 277 276 278 276 284 292 292 293 297 293 281 280 278 274 266 257 244 232 225 225 226 223 220 216 217
233 237 236 237 241 237 237 256 240 247 250 255 272 279 280 280 280 292 290 295 292 298 293 290 286 277 271 265 257 244 234 226 223 223 221 220 217 212
250 254 247 264 272 272 255 245 242 249 257 262 269 273 281 283 284 282 293 302 299 286 297 290 284 276 267 269 268 247 226 222 219 215 212 214 217 211
228 243 275 262 272 277 283 284 281 270 256 267 272 273 283 281 285 283 287 283 286 294 295 288 286 275 266 256 252 251 231 217 217 216 212 207 209 211
236 234 245 275 271 272 288 290 284 287 290 284 261 278 281 282 278 281 284 282 285 279 279 275 281 270 266 254 249 248 230 218 216 215 212 205 202 205
231 240 235 262 283 321 297 291 300 302 299 292 287 282 282 280 274 285 281 290 289 289 287 274 273 268 259 250 250 240 234 220 212 209 210 207 201 199
226 256 251 282 308 300 249 270 291 303 316 315 318 307 297 296 291 280 283 288 294 294 288 276 265 257 257 236 236 235 233 219 206 201 203 203 182 189
245 264 269 328 253 193 165 242 270 310 306 309 312 311 314 314 304 296 287 286 289 293 296 286 252 243 225 274 214 213 215 211 200 196 187 175 170 189
244 248 289 313 281 232 241 288 304 313 302 315 317 318 313 307 299 297 295 290 284 293 300 293 237 236 219 242 250 174 175 175 176 182 177 161 177 184
327 338 297 293 268 198 326 347 331 319 334 329 321 314 303 296 298 302 300 298 306 303 300 306 257 238 298 260 230 182 165 173 164 157 159 169 171 177
315 313 323 114 103 97 25 342 325 337 339 318 317 306 297 309 312 305 310 313 321 324 328 340 246 228 264 258 275 193 187 149 152 160 162 166 154 176
300 86 112 122 91 14 344 325 333 346 345 333 324 317 311 315 317 315 315 318 325 324 338 348 346 343 101 288 283 220 151 131 157 151 159 172 181 190
156 170 149 128 41 341 332 329 335 349 344 331 325 320 318 319 318 319 322 329 325 329 341 347 346 319 250 80 47 350 252 157 143 170 172 177 183 191
148 147 161 106 49 352 323 332 327 334 322 332 328 328 327 322 325 326 329 331 326 330 342 352 357 10 8 359 351 46 294 246 153 173 188 181 192 196
86 154 156 133 117 295 319 331 325 334 339 337 333 333 332 331 332 332 333 329 324 325 348 352 356 4 20 359 348 5 12 287 138 170 173 138 86 114
132 144 151 155 189 262 305 315 318 335 340 337 337 337 334 336 335 334 324 326 328 340 350 351 341 341 3 341 28 5 15 24 15 345 35 142 141 143
159 172 182 199 223 266 304 320 329 349 354 348 343 337 337 340 340 339 337 331 336 333 330 317 330 356 12 24 18 6 3 16 47 65 60 46 344 180
176 182 155 155 175 266 309 356 10 355 355 343 341 343 344 346 343 346 341 355 351 340 342 351 347 355 17 17 8 11 10 10 359 29 47 32 49 67